This is the latest recevied weather packets stored in our database for station/object N1LJK-13. If no packets are shown the sender has not sent any weather packets the latest 10 day(s).
| Time | Temp. | Humidity | Pressure | Rain* | Wind** | Luminosity | Snow |
|---|---|---|---|---|---|---|---|
| 1777640730 | 13.33° C | 98% | 1009.2 hPa | 0 mm | - | - | - |
| 1777638330 | 13.33° C | 98% | 1009.1 hPa | 0 mm | - | - | - |
| 1777637130 | 11.67° C | 98% | 1009.1 hPa | 0 mm | - | - | - |
| 1777635934 | 11.11° C | 98% | 1009.1 hPa | 0 mm | - | - | - |
| 1777634730 | 9.44° C | 98% | 1009.1 hPa | 0 mm | - | - | - |
| 1777631130 | 6.11° C | 98% | 1008.7 hPa | 0 mm | - | - | - |
| 1777629930 | 6.11° C | 98% | 1008.1 hPa | 0 mm | - | - | - |
| 1777628731 | 6.67° C | 98% | 1008 hPa | 0 mm | - | - | - |
| 1777627531 | 6.67° C | 98% | 1007.8 hPa | 0 mm | - | - | - |
| 1777626330 | 6.67° C | 98% | 1007.7 hPa | 0 mm | - | - | - |
| 1777625131 | 6.67° C | 98% | 1007.7 hPa | 0 mm | - | - | - |
| 1777622731 | 7.78° C | 98% | 1007.4 hPa | 0 mm | - | - | - |
| 1777621531 | 7.78° C | 98% | 1007.4 hPa | 0 mm | - | - | - |
| 1777620330 | 7.78° C | 98% | 1007.4 hPa | 0 mm | - | - | - |
| 1777619130 | 7.78° C | 98% | 1007.5 hPa | 0 mm | - | - | - |
| 1777617930 | 7.78° C | 98% | 1007.5 hPa | 0 mm | - | - | - |
| 1777616730 | 7.78° C | 98% | 1007.5 hPa | 0 mm | - | - | - |
| 1777615531 | 7.78° C | 98% | 1007.5 hPa | 0 mm | - | - | - |
| 1777614419 | 7.78° C | 98% | 1007.4 hPa | 0 mm | - | - | - |
| 1777613220 | 7.78° C | 98% | 1007.6 hPa | 0 mm | - | - | - |
| 1777612019 | 7.78° C | 98% | 1007.5 hPa | 0 mm | - | - | - |
| 1777610819 | 7.78° C | 98% | 1007.5 hPa | 0 mm | - | - | - |
| 1777609619 | 7.78° C | 98% | 1007.4 hPa | 0 mm | - | - | - |
| 1777608419 | 7.78° C | 98% | 1007.4 hPa | 0 mm | - | - | - |
| 1777607219 | 7.78° C | 98% | 1007.5 hPa | 0.25 mm | - | - | - |
* Rain latest hour (hover to see other rain measurements)
** Current wind speed in m/s (hover to see current wind gust speed)